Lid_Strength_Index
2 2 2 2 2 2 2 2 2 2 2 3 3 3 4 4 4 8 11 7 6 4 5 8 7 7 5 6 4 4 10 12 11 10 9 6 7 5 5 6 6 5 5 4 2
2 2 2 2 2 2 2 2 2 2 3 3 3 3 3 3 7 10 6 5 5 5 10 10 9 8 8 7 5 8 11 10 7 7 7 6 6 6 7 6 7 6 4 3 3
3 3 3 3 3 2 2 2 2 3 3 3 3 3 3 4 10 10 4 5 5 5 9 9 8 8 10 8 7 7 11 8 7 6 6 6 6 6 7 8 6 7 6 4 4
3 3 3 3 3 2 2 2 3 3 3 3 3 3 3 7 15 9 4 5 5 8 9 9 9 11 12 11 8 9 7 7 6 5 6 7 6 7 7 7 4 4 4 4 5
3 3 3 2 2 2 3 3 3 3 3 3 3 3 6 11 12 6 4 5 8 10 11 11 11 11 13 12 10 9 8 6 6 6 6 6 7 8 7 6 4 4 4 5 4
4 4 3 3 2 3 3 3 4 3 3 3 3 3 9 14 7 7 7 7 8 9 11 11 11 10 11 12 12 9 9 8 7 7 7 7 7 7 7 5 5 4 5 5 5
4 3 3 3 3 3 3 4 4 3 4 3 3 6 10 12 7 7 7 8 7 8 10 10 12 11 11 12 10 10 12 10 9 8 8 7 9 9 7 5 5 5 5 5 4
3 3 3 3 3 4 4 4 5 4 5 4 3 6 12 7 7 7 7 7 6 6 8 8 9 11 12 10 12 13 13 15 10 8 7 8 13 8 5 6 6 6 5 5 4
3 3 2 3 3 4 4 5 5 4 5 4 6 8 12 5 9 7 6 8 7 6 6 6 8 11 11 14 16 15 18 17 15 11 9 9 12 8 5 6 6 6 6 5 4
2 2 2 3 3 4 4 4 5 4 5 6 7 10 9 11 8 7 6 5 7 7 7 8 9 12 12 14 19 17 18 17 17 13 12 11 11 8 6 6 7 6 5 5 5
2 2 2 3 4 4 5 6 9 9 9 11 11 11 10 7 6 8 6 6 6 7 12 10 13 15 14 14 14 15 17 18 16 12 13 12 12 11 8 8 8 7 6 5 5
2 2 2 3 4 4 6 10 10 9 12 10 9 9 8 8 11 9 6 9 9 11 10 11 15 12 11 12 14 15 16 18 16 14 15 15 15 14 12 11 9 8 7 6 6
3 2 3 4 5 5 8 8 6 6 11 12 10 10 10 9 11 10 8 9 11 11 11 13 12 11 12 13 14 15 16 16 17 14 15 17 18 16 13 12 11 9 8 7 7
3 3 4 4 6 6 9 6 5 6 14 15 13 11 10 9 11 7 7 9 10 13 11 11 9 11 12 14 13 17 12 13 14 16 20 15 23 18 16 14 13 11 10 9 8
3 4 5 4 6 8 7 6 6 8 21 14 13 8 9 11 11 10 7 8 12 12 12 12 11 11 12 12 11 15 12 13 14 15 17 17 20 20 15 16 14 12 11 10 8
3 5 5 5 5 7 6 6 8 14 22 19 13 14 13 12 12 10 10 8 9 11 11 11 8 8 9 8 9 9 12 14 14 16 21 17 18 21 17 15 13 11 12 10 9
3 5 5 6 8 6 6 9 14 19 16 19 18 14 14 15 14 13 13 14 15 19 17 13 11 8 7 10 8 9 13 21 23 23 23 16 17 18 14 13 13 12 11 10 10
5 5 6 7 6 6 8 12 20 20 19 14 15 14 16 15 15 14 15 16 12 13 16 18 19 11 7 9 11 11 13 18 23 21 20 16 19 18 12 10 9 9 9 8 7
6 6 6 7 6 7 11 17 17 17 15 16 15 18 18 15 17 16 16 16 13 13 20 20 17 10 9 9 9 12 16 10 15 15 19 18 16 14 12 11 11 9 8 8 7
7 8 9 7 7 8 15 15 18 14 14 14 18 17 21 20 18 17 17 14 14 11 12 15 20 12 10 8 8 10 9 16 15 24 25 18 17 18 13 12 10 11 10 9 8
8 12 10 8 8 13 17 16 18 14 13 15 16 18 17 19 18 20 18 15 13 12 10 12 17 16 13 14 12 12 13 13 13 15 19 19 18 12 12 11 12 10 10 10 9
9 15 10 8 14 15 17 18 15 15 14 14 14 15 16 16 19 18 19 15 11 11 14 12 17 18 17 11 9 10 12 12 17 17 16 15 16 9 10 10 9 10 10 10 9
13 14 10 10 17 17 19 18 16 16 15 15 16 14 13 16 20 16 15 12 11 13 15 14 18 23 19 15 11 14 11 11 11 12 17 18 17 9 10 10 9 9 9 9 9
13 17 14 13 16 17 19 18 19 15 15 14 15 15 15 16 15 19 15 13 12 12 9 10 16 19 22 19 16 16 14 13 16 18 17 17 16 13 12 11 11 10 9 9 9
11 15 15 19 18 17 17 18 19 19 17 15 15 16 17 22 17 17 16 15 13 11 12 14 20 18 17 16 15 15 15 15 16 15 17 16 15 13 11 11 10 9 9 9 9
15 16 17 20 18 18 17 18 18 18 18 19 18 15 15 18 18 18 16 16 16 14 15 13 18 17 18 16 16 17 16 15 14 14 14 14 15 10 9 8 8 8 8 8 8
10 13 14 17 18 19 18 18 17 16 16 15 16 17 16 15 13 13 13 13 13 15 16 15 18 21 22 17 17 21 18 18 16 14 14 17 13 10 10 9 8 7 7 7 6